Biggs Army Air Field / Ft. Bl, TX

11:04 PM MDT on September 24, 2017 (GMT -0600)
Biggs Army Air Field

Weather History for KBIF - February, 2014

Change the Weather History Date:

Friday, February 28, 2014

  Actual Average (KELP) Record (KELP)
Temperature  
Mean Temperature 67 °F -  
Max Temperature 76 °F 60 °F 83 °F (2006)
Min Temperature 58 °F 37 °F 21 °F (1922)
Cooling Degree Days 2    
Growing Degree Days 17 (Base 50)    
Moisture  
Dew Point 27 °F    
Average Humidity 23    
Maximum Humidity 37    
Minimum Humidity 14    
Precipitation  
Precipitation 0.00 in - - ()
Sea Level Pressure  
Sea Level Pressure 29.81 in    
Wind  
Wind Speed 10 mph (West)    
Max Wind Speed 17 mph    
Max Gust Speed 31 mph    
Visibility 8 miles    
Events      
Averages and records for this station are not official NWS values.
T = Trace of Precipitation, MM = Missing Value Source: NWS Daily Summary

Daily Weather History Graph

Daily Weather History Graph

Search for Another Location

Airport or City:

Trip Planner

Search our weather history database for the weather conditions in past years. The results will help you decide how hot, cold, wet, or windy it might be!

Date:

Astronomy

Feb. 28, 2014 Rise Set
Actual Time 6:33 AM MST 6:02 PM MST
Civil Twilight 6:09 AM MST 6:27 PM MST
Nautical Twilight 5:40 AM MST 6:55 PM MST
Astronomical Twilight 5:12 AM MST 7:23 PM MST
Moon 5:49 AM MST (2/28) 5:41 PM MST (2/28)
Length of Visible Light 12h 17m
Length of Day
11h 28m
Waning Crescent, 0% of the Moon is Illuminated
Feb 28
Waning Crescent
Mar 1
New
Mar 8
First Quarter
Mar 16
Full
Mar 23
Last Quarter

Hourly Weather History & Observations

Time (MST) Temp. Dew Point Humidity Pressure Visibility Wind Dir Wind Speed Gust Speed Precip Events Conditions
12:56 AM 62.6 °F 30.2 °F 30% 29.74 in 7.0 mi West 17.3 mph 27.6 mph N/A   Clear
1:56 AM 62.6 °F 30.2 °F 30% 29.75 in 7.0 mi WNW 15.0 mph 31.1 mph N/A   Clear
2:56 AM 60.8 °F 32.0 °F 34% 29.76 in 7.0 mi NW 5.8 mph - N/A   Clear
3:56 AM 60.8 °F 32.0 °F 34% 29.78 in 7.0 mi North 4.6 mph - N/A   Clear
4:56 AM 58.6 °F 32.0 °F 37% 29.80 in 7.0 mi North 4.6 mph - N/A   Clear
5:56 AM 60.1 °F 31.3 °F 34% 29.81 in 7.0 mi Calm Calm - N/A   Clear
6:56 AM 58.6 °F 30.9 °F 35% 29.84 in 7.0 mi WSW 4.6 mph - N/A   Partly Cloudy
7:56 AM 60.8 °F 32.0 °F 34% 29.86 in 7.0 mi West 6.9 mph - N/A   Partly Cloudy
8:56 AM 64.6 °F 31.8 °F 29% 29.87 in 7.0 mi WNW 12.7 mph - N/A   Scattered Clouds
9:56 AM 66.2 °F 31.6 °F 28% 29.86 in 7.0 mi West 10.4 mph - N/A   Scattered Clouds
10:56 AM 69.4 °F 30.2 °F 23% 29.86 in 7.0 mi WSW 11.5 mph - N/A   Scattered Clouds
11:56 AM 70.3 °F 29.8 °F 22% 29.83 in 7.0 mi SW 12.7 mph - N/A   Partly Cloudy
12:56 PM 73.0 °F 26.4 °F 18% 29.81 in 7.0 mi West 11.5 mph - N/A   Partly Cloudy
1:03 PM 73.4 °F 28.4 °F 19% 29.95 in 12.0 mi West 12.7 mph 26.5 mph N/A   Clear
1:32 PM 73.4 °F 26.6 °F 18% 29.94 in 12.0 mi WSW 13.8 mph 20.7 mph N/A   Clear
1:56 PM 73.4 °F 24.8 °F 16% 29.77 in 7.0 mi West 11.5 mph 23.0 mph N/A   Partly Cloudy
2:56 PM 74.8 °F 25.0 °F 16% 29.77 in 7.0 mi WSW 13.8 mph 23.0 mph N/A   Partly Cloudy
3:56 PM 76.1 °F 24.6 °F 15% 29.75 in 7.0 mi West 8.1 mph 19.6 mph N/A   Clear
4:56 PM 76.3 °F 23.5 °F 14% 29.73 in 7.0 mi West 9.2 mph 17.3 mph N/A   Partly Cloudy
5:56 PM 74.5 °F 22.6 °F 14% 29.74 in 7.0 mi SSW 8.1 mph - N/A   Clear
6:56 PM 70.3 °F 23.4 °F 17% 29.77 in 7.0 mi Variable 3.5 mph - N/A   Clear
7:56 PM 66.4 °F 23.2 °F 19% 29.79 in 12.0 mi NNW 4.6 mph - N/A   Clear
8:56 PM 64.4 °F 25.0 °F 22% 29.80 in 12.0 mi North 2.3 mph - N/A   Clear
9:56 PM 70.2 °F 21.0 °F 16% 29.81 in 12.0 mi WSW 15.0 mph 23.0 mph N/A   Clear
10:56 PM 70.3 °F 19.4 °F 14% 29.81 in 12.0 mi WSW 16.1 mph 27.6 mph N/A   Scattered Clouds
11:56 PM 68.0 °F 19.8 °F 16% 29.82 in 12.0 mi West 13.8 mph 21.9 mph N/A   Partly Cloudy